,,,PA_Meas_PMT16A,,PR_Meas_QMR101_102,,RH_Meas_QMH101,,SR_Meas_QMS101,,TA_Meas_QMH101,,GenWind,,GenWind,
date,time,status,PA,status,PR,status,RH,status,SR,status,TA,status,DirAvg,status,SpdAvg,
2012-04-10, 00:00:05,VALID,1011.04,VALID,0,VALID,104,VALID,0.112112,VALID,23.4974,VALID,90,VALID,0.312891,
2012-04-10, 00:01:05,VALID,1011,VALID,0,VALID,104,VALID,0,VALID,23.5169,VALID,90,VALID,0.339453,
2012-04-10, 00:02:05,VALID,1010.98,VALID,0,VALID,104,VALID,0.112112,VALID,23.5381,VALID,90,VALID,0.360547,
2012-04-10, 00:03:05,VALID,1010.95,VALID,0,VALID,104,VALID,0,VALID,23.5363,VALID,90,VALID,0.414844,
2012-04-10, 00:04:05,VALID,1010.94,VALID,0,VALID,104,VALID,0.112112,VALID,23.5363,VALID,90,VALID,0.366016,
2012-04-10, 00:05:05,VALID,1010.92,VALID,0,VALID,104,VALID,0.112112,VALID,23.5169,VALID,90,VALID,0.279297,
2012-04-10, 00:06:05,VALID,1010.91,VALID,0,VALID,104,VALID,0,VALID,23.5186,VALID,90,VALID,0.205078,
2012-04-10, 00:07:05,VALID,1010.92,VALID,0,VALID,104,VALID,0,VALID,23.4992,VALID,90,VALID,0,
2012-04-10, 00:08:05,VALID,1010.91,VALID,0,VALID,104,VALID,0,VALID,23.4992,VALID,90,VALID,0,
2012-04-10, 00:09:05,VALID,1010.93,VALID,0,VALID,104,VALID,0,VALID,23.4602,VALID,90,VALID,0,
2012-04-10, 00:10:05,VALID,1010.94,VALID,0,VALID,104,VALID,0,VALID,23.4602,VALID,90,VALID,0,
2012-04-10, 00:11:05,VALID,1010.93,VALID,0,VALID,104,VALID,0,VALID,23.4212,VALID,90,VALID,0,
2012-04-10, 00:12:05,VALID,1010.96,VALID,0,VALID,104,VALID,0,VALID,23.4212,VALID,90,VALID,0,
2012-04-10, 00:13:05,VALID,1010.95,VALID,0,VALID,104,VALID,0,VALID,23.3823,VALID,90,VALID,0,
2012-04-10, 00:14:05,VALID,1010.94,VALID,0,VALID,104,VALID,0,VALID,23.4017,VALID,90,VALID,0,
2012-04-10, 00:15:05,VALID,1010.93,VALID,0,VALID,104,VALID,0,VALID,23.4212,VALID,90,VALID,0,
2012-04-10, 00:16:04,VALID,1010.93,VALID,0,VALID,104,VALID,0,VALID,23.4212,VALID,90,VALID,0,
2012-04-10, 00:17:04,VALID,1010.9,VALID,0,VALID,104,VALID,0,VALID,23.4407,VALID,90,VALID,0,
2012-04-10, 00:18:04,VALID,1010.85,VALID,0,VALID,104,VALID,0,VALID,23.4407,VALID,90,VALID,0,
2012-04-10, 00:19:04,VALID,1010.84,VALID,0,VALID,104,VALID,0,VALID,23.4407,VALID,90,VALID,0,
2012-04-10, 00:20:04,VALID,1010.8,VALID,0,VALID,104,VALID,0,VALID,23.4212,VALID,90,VALID,0,
2012-04-10, 00:21:04,VALID,1010.78,VALID,0,VALID,104,VALID,0,VALID,23.4017,VALID,90,VALID,0.217187,
2012-04-10, 00:22:04,VALID,1010.78,VALID,0,VALID,104,VALID,0,VALID,23.4017,VALID,90,VALID,0.294922,
2012-04-10, 00:23:04,VALID,1010.77,VALID,0,VALID,104,VALID,0,VALID,23.4212,VALID,90,VALID,0.273828,
2012-04-10, 00:24:04,VALID,1010.76,VALID,0,VALID,104,VALID,0,VALID,23.4212,VALID,90,VALID,0.216016,
2012-04-10, 00:25:04,VALID,1010.76,VALID,0,VALID,104,VALID,0,VALID,23.4407,VALID,90,VALID,0.114844,
2012-04-10, 00:26:04,VALID,1010.76,VALID,0,VALID,104,VALID,0,VALID,23.4602,VALID,90,VALID,0,
2012-04-10, 00:27:04,VALID,1010.78,VALID,0,VALID,104,VALID,0,VALID,23.4602,VALID,90,VALID,0,
2012-04-10, 00:28:04,VALID,1010.78,VALID,0,VALID,104,VALID,0,VALID,23.4407,VALID,90,VALID,0,
2012-04-10, 00:29:04,VALID,1010.75,VALID,0,VALID,104,VALID,0,VALID,23.4212,VALID,90,VALID,0,
2012-04-10, 00:30:04,VALID,1010.74,VALID,0,VALID,104,VALID,0,VALID,23.4212,VALID,90,VALID,0,
2012-04-10, 00:31:04,VALID,1010.72,VALID,0,VALID,104,VALID,0,VALID,23.4017,VALID,90,VALID,0,
2012-04-10, 00:32:04,VALID,1010.68,VALID,0,VALID,104,VALID,0,VALID,23.4017,VALID,90,VALID,0.309375,
2012-04-10, 00:33:04,VALID,1010.66,VALID,0,VALID,104,VALID,0,VALID,23.4212,VALID,90,VALID,0.314453,
2012-04-10, 00:34:04,VALID,1010.61,VALID,0,VALID,104,VALID,0,VALID,23.4212,VALID,90,VALID,0.283594,
2012-04-10, 00:35:04,VALID,1010.59,VALID,0,VALID,104,VALID,0,VALID,23.4017,VALID,90,VALID,0.207422,
2012-04-10, 00:36:04,VALID,1010.56,VALID,0,VALID,104,VALID,0,VALID,23.3823,VALID,90,VALID,0.375781,
2012-04-10, 00:37:04,VALID,1010.56,VALID,0,VALID,104,VALID,0,VALID,23.361,VALID,90,VALID,0.364844,
2012-04-10, 00:38:04,VALID,1010.53,VALID,0,VALID,104,VALID,0,VALID,23.3433,VALID,90,VALID,0.346094,
2012-04-10, 00:39:04,VALID,1010.48,VALID,0,VALID,104,VALID,0,VALID,23.3433,VALID,90,VALID,0.335156,
2012-04-10, 00:40:04,VALID,1010.46,VALID,0,VALID,104,VALID,0,VALID,23.3451,VALID,90,VALID,0.301172,
2012-04-10, 00:41:04,VALID,1010.44,VALID,0,VALID,104,VALID,0,VALID,23.3043,VALID,90,VALID,0.326172,
2012-04-10, 00:42:04,VALID,1010.42,VALID,0,VALID,104,VALID,0,VALID,23.3043,VALID,90,VALID,0.336719,
2012-04-10, 00:43:04,VALID,1010.43,VALID,0,VALID,104,VALID,0,VALID,23.3238,VALID,90,VALID,0.273828,
2012-04-10, 00:44:04,VALID,1010.4,VALID,0,VALID,104,VALID,0,VALID,23.3043,VALID,90,VALID,0.113672,
2012-04-10, 00:45:04,VALID,1010.41,VALID,0,VALID,104,VALID,0,VALID,23.3043,VALID,90,VALID,0,
2012-04-10, 00:46:04,VALID,1010.42,VALID,0,VALID,104,VALID,0,VALID,23.3043,VALID,90,VALID,0,
2012-04-10, 00:47:04,VALID,1010.38,VALID,0,VALID,104,VALID,0,VALID,23.2831,VALID,90,VALID,0,
2012-04-10, 00:48:04,VALID,1010.4,VALID,0,VALID,104,VALID,0,VALID,23.3026,VALID,90,VALID,0.223828,
2012-04-10, 00:49:04,VALID,1010.37,VALID,0,VALID,104,VALID,0,VALID,23.3628,VALID,90,VALID,0.214453,
2012-04-10, 00:50:04,VALID,1010.36,VALID,0,VALID,104,VALID,0,VALID,23.3433,VALID,90,VALID,0.175781,
2012-04-10, 00:51:04,VALID,1010.34,VALID,0,VALID,104,VALID,0,VALID,23.3628,VALID,90,VALID,0.191797,
2012-04-10, 00:52:04,VALID,1010.33,VALID,0,VALID,104,VALID,0,VALID,23.3433,VALID,90,VALID,0.145313,
2012-04-10, 00:53:04,VALID,1010.3,VALID,0,VALID,104,VALID,0,VALID,23.3043,VALID,90,VALID,0,
2012-04-10, 00:54:04,VALID,1010.3,VALID,0,VALID,104,VALID,0,VALID,23.3238,VALID,90,VALID,0,
2012-04-10, 00:55:04,VALID,1010.28,VALID,0,VALID,104,VALID,0,VALID,23.3043,VALID,90,VALID,0,
2012-04-10, 00:56:04,VALID,1010.27,VALID,0,VALID,104,VALID,0,VALID,23.3238,VALID,90,VALID,0,
2012-04-10, 00:57:04,VALID,1010.28,VALID,0,VALID,104,VALID,0,VALID,23.3043,VALID,90,VALID,0,
2012-04-10, 00:58:04,VALID,1010.28,VALID,0,VALID,104,VALID,0,VALID,23.2848,VALID,90,VALID,0,
2012-04-10, 00:59:04,VALID,1010.25,VALID,0,VALID,104,VALID,0,VALID,23.2848,VALID,90,VALID,0,
2012-04-10, 01:00:04,VALID,1010.25,VALID,0,VALID,104,VALID,0,VALID,23.2848,VALID,90,VALID,0,
2012-04-10, 01:01:04,VALID,1010.25,VALID,0,VALID,104,VALID,0,VALID,23.2654,VALID,90,VALID,0,
2012-04-10, 01:02:04,VALID,1010.25,VALID,0,VALID,104,VALID,0,VALID,23.2654,VALID,90,VALID,0,
2012-04-10, 01:03:04,VALID,1010.21,VALID,0,VALID,104,VALID,0,VALID,23.2654,VALID,90,VALID,0,
2012-04-10, 01:04:04,VALID,1010.19,VALID,0,VALID,104,VALID,0,VALID,23.2459,VALID,90,VALID,0,
2012-04-10, 01:05:04,VALID,1010.17,VALID,0,VALID,104,VALID,0,VALID,23.2264,VALID,90,VALID,0,
2012-04-10, 01:06:04,VALID,1010.15,VALID,0,VALID,104,VALID,0,VALID,23.2264,VALID,90,VALID,0,
2012-04-10, 01:07:04,VALID,1010.14,VALID,0,VALID,104,VALID,0,VALID,23.2264,VALID,90,VALID,0,
2012-04-10, 01:08:04,VALID,1010.13,VALID,0,VALID,104,VALID,0,VALID,23.1857,VALID,90,VALID,0,
2012-04-10, 01:09:04,VALID,1010.11,VALID,0,VALID,104,VALID,0,VALID,23.1874,VALID,90,VALID,0,
2012-04-10, 01:10:04,VALID,1010.08,VALID,0,VALID,104,VALID,0,VALID,23.2087,VALID,90,VALID,0,
2012-04-10, 01:11:04,VALID,1010.07,VALID,0,VALID,104,VALID,0,VALID,23.2069,VALID,90,VALID,0,
2012-04-10, 01:12:04,VALID,1010.03,VALID,0,VALID,104,VALID,0,VALID,23.2459,VALID,90,VALID,0,
2012-04-10, 01:13:04,VALID,1010.02,VALID,0,VALID,104,VALID,0,VALID,23.2654,VALID,90,VALID,0,
2012-04-10, 01:14:04,VALID,1009.97,VALID,0,VALID,104,VALID,0,VALID,23.2459,VALID,90,VALID,0,
2012-04-10, 01:15:04,VALID,1009.95,VALID,0,VALID,104,VALID,0,VALID,23.2459,VALID,90,VALID,0,
2012-04-10, 01:16:04,VALID,1009.91,VALID,0,VALID,104,VALID,0,VALID,23.2264,VALID,90,VALID,0,
2012-04-10, 01:17:04,VALID,1009.92,VALID,0,VALID,104,VALID,0,VALID,23.2069,VALID,90,VALID,0,
2012-04-10, 01:18:04,VALID,1009.91,VALID,0,VALID,104,VALID,0,VALID,23.1679,VALID,90,VALID,0,
2012-04-10, 01:19:04,VALID,1009.92,VALID,0,VALID,104,VALID,0,VALID,23.1272,VALID,90,VALID,0,
2012-04-10, 01:20:04,VALID,1009.92,VALID,0,VALID,104,VALID,0,VALID,23.1679,VALID,90,VALID,0,
2012-04-10, 01:21:04,VALID,1009.92,VALID,0,VALID,104,VALID,0,VALID,23.1679,VALID,90,VALID,0,
2012-04-10, 01:22:04,VALID,1009.94,VALID,0,VALID,104,VALID,0,VALID,23.1272,VALID,90,VALID,0.342187,
2012-04-10, 01:23:04,VALID,1009.95,VALID,0,VALID,104,VALID,0,VALID,23.129,VALID,90,VALID,0.325,
2012-04-10, 01:24:04,VALID,1009.96,VALID,0,VALID,104,VALID,0,VALID,23.1697,VALID,90,VALID,0.144922,
2012-04-10, 01:25:04,VALID,1009.97,VALID,0,VALID,104,VALID,0,VALID,23.129,VALID,90,VALID,0,
2012-04-10, 01:26:04,VALID,1009.98,VALID,0,VALID,104,VALID,0,VALID,23.129,VALID,90,VALID,0,
2012-04-10, 01:27:04,VALID,1009.98,VALID,0,VALID,104,VALID,0,VALID,23.1095,VALID,90,VALID,0,
2012-04-10, 01:28:04,VALID,1009.97,VALID,0,VALID,104,VALID,0,VALID,23.0688,VALID,90,VALID,0,
2012-04-10, 01:29:04,VALID,1009.97,VALID,0,VALID,104,VALID,0,VALID,23.129,VALID,90,VALID,0.0625,
2012-04-10, 01:30:04,VALID,1009.99,VALID,0,VALID,104,VALID,0,VALID,23.1697,VALID,90,VALID,0,
2012-04-10, 01:31:04,VALID,1009.94,VALID,0,VALID,104,VALID,0,VALID,23.1874,VALID,90,VALID,0,
2012-04-10, 01:32:04,VALID,1009.93,VALID,0,VALID,104,VALID,0,VALID,23.2069,VALID,90,VALID,0,
2012-04-10, 01:33:04,VALID,1009.93,VALID,0,VALID,104,VALID,0,VALID,23.2069,VALID,90,VALID,0,
2012-04-10, 01:34:04,VALID,1009.9,VALID,0,VALID,104,VALID,0,VALID,23.2264,VALID,90,VALID,0,
2012-04-10, 01:35:04,VALID,1009.89,VALID,0,VALID,104,VALID,0,VALID,23.2069,VALID,90,VALID,0,
2012-04-10, 01:36:04,VALID,1009.9,VALID,0,VALID,104,VALID,0,VALID,23.2264,VALID,90,VALID,0,
2012-04-10, 01:37:04,VALID,1009.91,VALID,0,VALID,104,VALID,0,VALID,23.2282,VALID,90,VALID,0,
2012-04-10, 01:38:04,VALID,1009.91,VALID,0,VALID,104,VALID,0,VALID,23.2264,VALID,90,VALID,0,
2012-04-10, 01:39:04,VALID,1009.89,VALID,0,VALID,104,VALID,0,VALID,23.2264,VALID,90,VALID,0,
2012-04-10, 01:40:04,VALID,1009.9,VALID,0,VALID,104,VALID,0,VALID,23.2264,VALID,90,VALID,0,
2012-04-10, 01:41:04,VALID,1009.88,VALID,0,VALID,104,VALID,0,VALID,23.2051,VALID,90,VALID,0,
2012-04-10, 01:42:04,VALID,1009.87,VALID,0,VALID,104,VALID,0,VALID,23.2069,VALID,90,VALID,0,
2012-04-10, 01:43:04,VALID,1009.88,VALID,0,VALID,104,VALID,0,VALID,23.1679,VALID,90,VALID,0,
2012-04-10, 01:44:04,VALID,1009.88,VALID,0,VALID,104,VALID,0,VALID,23.1485,VALID,90,VALID,0.341797,
2012-04-10, 01:45:04,VALID,1009.87,VALID,0,VALID,104,VALID,0,VALID,23.09,VALID,90,VALID,0.367188,
2012-04-10, 01:46:04,VALID,1009.9,VALID,0,VALID,104,VALID,0,VALID,23.1095,VALID,90,VALID,0.417969,
2012-04-10, 01:47:04,VALID,1009.89,VALID,0,VALID,104,VALID,0,VALID,23.129,VALID,88,VALID,0.414453,
2012-04-10, 01:48:04,VALID,1009.87,VALID,0,VALID,104,VALID,0,VALID,23.129,VALID,72,VALID,0.273047,
2012-04-10, 01:49:04,VALID,1009.81,VALID,0,VALID,104,VALID,0,VALID,23.129,VALID,72,VALID,0.235547,
2012-04-10, 01:50:04,VALID,1009.8,VALID,0,VALID,104,VALID,0,VALID,23.1307,VALID,72,VALID,0.179688,
2012-04-10, 01:51:04,VALID,1009.8,VALID,0,VALID,104,VALID,0,VALID,23.09,VALID,72,VALID,0.0726563,
2012-04-10, 01:52:04,VALID,1009.76,VALID,0,VALID,104,VALID,0,VALID,23.0705,VALID,72,VALID,0,
2012-04-10, 01:53:04,VALID,1009.75,VALID,0,VALID,104,VALID,0,VALID,23.0511,VALID,72,VALID,0,
2012-04-10, 01:54:04,VALID,1009.75,VALID,0,VALID,104,VALID,0,VALID,23.0511,VALID,72,VALID,0,
2012-04-10, 01:55:04,VALID,1009.73,VALID,0,VALID,104,VALID,0,VALID,22.9926,VALID,72,VALID,0,
2012-04-10, 01:56:04,VALID,1009.71,VALID,0,VALID,104,VALID,0,VALID,22.9926,VALID,72,VALID,0,
2012-04-10, 01:57:04,VALID,1009.7,VALID,0,VALID,104,VALID,0,VALID,22.9926,VALID,72,VALID,0,
2012-04-10, 01:58:04,VALID,1009.71,VALID,0,VALID,104,VALID,0,VALID,22.9926,VALID,72,VALID,0,
2012-04-10, 01:59:04,VALID,1009.7,VALID,0,VALID,104,VALID,0,VALID,22.9926,VALID,72,VALID,0.189063,
2012-04-10, 02:00:04,VALID,1009.68,VALID,0,VALID,104,VALID,0.112112,VALID,22.9909,VALID,72,VALID,0.507422,
2012-04-10, 02:01:04,VALID,1009.7,VALID,0,VALID,104,VALID,0.112112,VALID,22.9926,VALID,72,VALID,0.220313,
2012-04-10, 02:02:04,VALID,1009.64,VALID,0,VALID,104,VALID,0,VALID,22.9909,VALID,72,VALID,0.360547,
2012-04-10, 02:03:04,VALID,1009.63,VALID,0,VALID,104,VALID,0,VALID,22.9926,VALID,72,VALID,0.383594,
2012-04-10, 02:04:04,VALID,1009.61,VALID,0,VALID,104,VALID,0,VALID,23.0316,VALID,72,VALID,0.556641,
2012-04-10, 02:05:04,VALID,1009.61,VALID,0,VALID,104,VALID,0,VALID,23.0316,VALID,72,VALID,0.120312,
2012-04-10, 02:06:04,VALID,1009.57,VALID,0,VALID,104,VALID,0,VALID,23.0316,VALID,72,VALID,0.0234375,
2012-04-10, 02:07:04,VALID,1009.59,VALID,0,VALID,104,VALID,0,VALID,23.0121,VALID,72,VALID,0,
2012-04-10, 02:08:04,VALID,1009.55,VALID,0,VALID,104,VALID,0,VALID,22.9909,VALID,72,VALID,0,
2012-04-10, 02:09:04,VALID,1009.55,VALID,0,VALID,104,VALID,0,VALID,22.9926,VALID,72,VALID,0,
2012-04-10, 02:10:04,VALID,1009.53,VALID,0,VALID,104,VALID,0,VALID,23.0121,VALID,72,VALID,0,
2012-04-10, 02:11:04,VALID,1009.5,VALID,0,VALID,104,VALID,0,VALID,23.0511,VALID,72,VALID,0,
2012-04-10, 02:12:04,VALID,1009.5,VALID,0,VALID,104,VALID,0,VALID,23.0511,VALID,72,VALID,0,
2012-04-10, 02:13:04,VALID,1009.49,VALID,0,VALID,104,VALID,0,VALID,23.0316,VALID,72,VALID,0,
2012-04-10, 02:14:04,VALID,1009.5,VALID,0,VALID,104,VALID,0,VALID,23.0316,VALID,72,VALID,0,
2012-04-10, 02:15:04,VALID,1009.47,VALID,0,VALID,104,VALID,0,VALID,23.0316,VALID,72,VALID,0,
2012-04-10, 02:16:04,VALID,1009.49,VALID,0,VALID,104,VALID,0,VALID,23.0511,VALID,72,VALID,0,
2012-04-10, 02:17:04,VALID,1009.5,VALID,0,VALID,104,VALID,0,VALID,23.0511,VALID,72,VALID,0,
2012-04-10, 02:18:04,VALID,1009.53,VALID,0,VALID,104,VALID,0,VALID,23.0103,VALID,72,VALID,0,
2012-04-10, 02:19:04,VALID,1009.52,VALID,0,VALID,104,VALID,0,VALID,23.0316,VALID,72,VALID,0,
2012-04-10, 02:20:04,VALID,1009.53,VALID,0,VALID,104,VALID,0,VALID,23.0316,VALID,72,VALID,0,
2012-04-10, 02:21:04,VALID,1009.54,VALID,0,VALID,104,VALID,0.112112,VALID,22.9926,VALID,72,VALID,0,
2012-04-10, 02:22:04,VALID,1009.54,VALID,0,VALID,104,VALID,0,VALID,22.9714,VALID,72,VALID,0,
2012-04-10, 02:23:04,VALID,1009.55,VALID,0,VALID,104,VALID,0,VALID,22.9536,VALID,72,VALID,0,
2012-04-10, 02:24:04,VALID,1009.56,VALID,0,VALID,104,VALID,0,VALID,22.9342,VALID,72,VALID,0,
2012-04-10, 02:25:04,VALID,1009.58,VALID,0,VALID,104,VALID,0,VALID,22.8952,VALID,72,VALID,0,
2012-04-10, 02:26:04,VALID,1009.59,VALID,0,VALID,104,VALID,0,VALID,22.8952,VALID,72,VALID,0,
2012-04-10, 02:27:04,VALID,1009.61,VALID,0,VALID,104,VALID,0,VALID,22.8757,VALID,72,VALID,0,
2012-04-10, 02:28:04,VALID,1009.59,VALID,0,VALID,104,VALID,0,VALID,22.8952,VALID,72,VALID,0.145703,
2012-04-10, 02:29:04,VALID,1009.62,VALID,0,VALID,104,VALID,0,VALID,22.8952,VALID,72,VALID,0.163672,
2012-04-10, 02:30:04,VALID,1009.59,VALID,0,VALID,104,VALID,0,VALID,22.8952,VALID,72,VALID,0,
2012-04-10, 02:31:04,VALID,1009.61,VALID,0,VALID,104,VALID,0,VALID,22.8952,VALID,72,VALID,0,
2012-04-10, 02:32:04,VALID,1009.62,VALID,0,VALID,104,VALID,0,VALID,22.8545,VALID,72,VALID,0,
2012-04-10, 02:33:04,VALID,1009.64,VALID,0,VALID,104,VALID,0,VALID,22.8757,VALID,72,VALID,0,
2012-04-10, 02:34:04,VALID,1009.66,VALID,0,VALID,104,VALID,0,VALID,22.8757,VALID,72,VALID,0,
2012-04-10, 02:35:04,VALID,1009.66,VALID,0,VALID,104,VALID,0,VALID,22.8562,VALID,72,VALID,0,
2012-04-10, 02:36:04,VALID,1009.69,VALID,0,VALID,104,VALID,0,VALID,22.8562,VALID,72,VALID,0,
2012-04-10, 02:37:04,VALID,1009.72,VALID,0,VALID,104,VALID,0,VALID,22.8562,VALID,72,VALID,0,
2012-04-10, 02:38:04,VALID,1009.74,VALID,0,VALID,104,VALID,0,VALID,22.8757,VALID,72,VALID,0,
2012-04-10, 02:39:04,VALID,1009.74,VALID,0,VALID,104,VALID,0,VALID,22.8757,VALID,72,VALID,0.493359,
2012-04-10, 02:40:04,VALID,1009.8,VALID,0,VALID,104,VALID,0,VALID,22.8935,VALID,158,VALID,0.88125,
2012-04-10, 02:41:04,VALID,1009.84,VALID,0,VALID,104,VALID,0,VALID,22.9147,VALID,158,VALID,0.544531,
2012-04-10, 02:42:04,VALID,1009.84,VALID,0,VALID,104,VALID,0,VALID,22.9147,VALID,158,VALID,0.438672,
2012-04-10, 02:43:04,VALID,1009.84,VALID,0,VALID,104,VALID,0,VALID,22.9342,VALID,158,VALID,0.357031,
2012-04-10, 02:44:04,VALID,1009.84,VALID,0,VALID,104,VALID,0,VALID,22.9536,VALID,158,VALID,0.0121094,
2012-04-10, 02:45:04,VALID,1009.86,VALID,0,VALID,104,VALID,0,VALID,22.9536,VALID,158,VALID,0,
2012-04-10, 02:46:04,VALID,1009.86,VALID,0,VALID,104,VALID,0,VALID,22.9536,VALID,158,VALID,0,
2012-04-10, 02:47:04,VALID,1009.89,VALID,0,VALID,104,VALID,0,VALID,22.9536,VALID,158,VALID,0,
2012-04-10, 02:48:04,VALID,1009.86,VALID,0,VALID,104,VALID,0,VALID,22.9731,VALID,158,VALID,0,
2012-04-10, 02:49:04,VALID,1009.91,VALID,0,VALID,104,VALID,0,VALID,22.9731,VALID,158,VALID,0,
2012-04-10, 02:50:04,VALID,1009.88,VALID,0,VALID,104,VALID,0,VALID,22.9926,VALID,158,VALID,0,
2012-04-10, 02:51:04,VALID,1009.89,VALID,0,VALID,104,VALID,0,VALID,23.0121,VALID,158,VALID,0,
2012-04-10, 02:52:04,VALID,1009.88,VALID,0,VALID,104,VALID,0,VALID,23.0121,VALID,158,VALID,0,
2012-04-10, 02:53:04,VALID,1009.91,VALID,0,VALID,104,VALID,0,VALID,23.0316,VALID,158,VALID,0.0128906,
2012-04-10, 02:54:04,VALID,1009.88,VALID,0,VALID,104,VALID,0,VALID,23.0511,VALID,158,VALID,0,
2012-04-10, 02:55:04,VALID,1009.91,VALID,0,VALID,104,VALID,0,VALID,23.0705,VALID,158,VALID,0,
2012-04-10, 02:56:04,VALID,1009.91,VALID,0,VALID,104,VALID,0,VALID,23.0705,VALID,158,VALID,0,
2012-04-10, 02:57:04,VALID,1009.92,VALID,0,VALID,104,VALID,0,VALID,23.09,VALID,158,VALID,0,
2012-04-10, 02:58:04,VALID,1009.89,VALID,0,VALID,104,VALID,0,VALID,23.09,VALID,158,VALID,0,
2012-04-10, 02:59:04,VALID,1009.93,VALID,0,VALID,104,VALID,0,VALID,23.09,VALID,158,VALID,0,
2012-04-10, 03:00:04,VALID,1009.87,VALID,0,VALID,104,VALID,0,VALID,23.09,VALID,158,VALID,0.00195313,
2012-04-10, 03:01:04,VALID,1009.85,VALID,0,VALID,104,VALID,0,VALID,23.09,VALID,158,VALID,0,
2012-04-10, 03:02:04,VALID,1009.82,VALID,0,VALID,104,VALID,0,VALID,23.0918,VALID,158,VALID,0.224219,
2012-04-10, 03:03:04,VALID,1009.86,VALID,0,VALID,104,VALID,0,VALID,23.0316,VALID,158,VALID,0.23125,
2012-04-10, 03:04:04,VALID,1009.83,VALID,0,VALID,104,VALID,0,VALID,22.9926,VALID,158,VALID,0.287109,
2012-04-10, 03:05:04,VALID,1009.87,VALID,0,VALID,104,VALID,0,VALID,22.9731,VALID,158,VALID,0.355078,
2012-04-10, 03:06:04,VALID,1009.84,VALID,0,VALID,104,VALID,0,VALID,22.9324,VALID,158,VALID,0.460156,
2012-04-10, 03:07:04,VALID,1009.85,VALID,0,VALID,104,VALID,0,VALID,22.9342,VALID,158,VALID,0.521875,
2012-04-10, 03:08:04,VALID,1009.82,VALID,0,VALID,104,VALID,0,VALID,22.9147,VALID,158,VALID,0.368359,
2012-04-10, 03:09:04,VALID,1009.82,VALID,0,VALID,104,VALID,0,VALID,22.8935,VALID,158,VALID,0.109766,
2012-04-10, 03:10:04,VALID,1009.8,VALID,0,VALID,104,VALID,0,VALID,22.8952,VALID,158,VALID,0.107813,
2012-04-10, 03:11:04,VALID,1009.75,VALID,0,VALID,104,VALID,0,VALID,22.8757,VALID,158,VALID,0.285937,
2012-04-10, 03:12:04,VALID,1009.78,VALID,0,VALID,104,VALID,0,VALID,22.8952,VALID,158,VALID,0.260156,
2012-04-10, 03:13:04,VALID,1009.77,VALID,0,VALID,104,VALID,0,VALID,22.8757,VALID,158,VALID,0.251953,
2012-04-10, 03:14:04,VALID,1009.74,VALID,0,VALID,104,VALID,0,VALID,22.8545,VALID,158,VALID,0.0855469,
2012-04-10, 03:15:04,VALID,1009.71,VALID,0,VALID,104,VALID,0,VALID,22.8757,VALID,158,VALID,0,
2012-04-10, 03:16:04,VALID,1009.72,VALID,0,VALID,104,VALID,0,VALID,22.8969,VALID,158,VALID,0,
2012-04-10, 03:17:04,VALID,1009.7,VALID,0,VALID,104,VALID,0,VALID,22.8545,VALID,158,VALID,0,
2012-04-10, 03:18:04,VALID,1009.73,VALID,0,VALID,104,VALID,0,VALID,22.8952,VALID,158,VALID,0,
2012-04-10, 03:19:04,VALID,1009.73,VALID,0,VALID,104,VALID,0,VALID,22.9147,VALID,158,VALID,0,
2012-04-10, 03:20:04,VALID,1009.76,VALID,0,VALID,104,VALID,0,VALID,22.9342,VALID,158,VALID,0,
2012-04-10, 03:21:04,VALID,1009.77,VALID,0,VALID,104,VALID,0,VALID,22.9536,VALID,158,VALID,0.167187,
2012-04-10, 03:22:04,VALID,1009.79,VALID,0,VALID,104,VALID,0,VALID,22.9536,VALID,158,VALID,0,
2012-04-10, 03:23:04,VALID,1009.77,VALID,0,VALID,104,VALID,0,VALID,22.9731,VALID,158,VALID,0,
2012-04-10, 03:24:04,VALID,1009.78,VALID,0,VALID,104,VALID,0,VALID,22.9926,VALID,158,VALID,0,
2012-04-10, 03:25:04,VALID,1009.8,VALID,0,VALID,104,VALID,0,VALID,22.9926,VALID,158,VALID,0,
2012-04-10, 03:26:04,VALID,1009.82,VALID,0,VALID,104,VALID,0,VALID,22.9926,VALID,158,VALID,0,
2012-04-10, 03:27:04,VALID,1009.86,VALID,0,VALID,104,VALID,0,VALID,22.9926,VALID,158,VALID,0,
2012-04-10, 03:28:04,VALID,1009.84,VALID,0,VALID,104,VALID,0.112112,VALID,22.9714,VALID,158,VALID,0.330078,
2012-04-10, 03:29:04,VALID,1009.89,VALID,0,VALID,104,VALID,0,VALID,23.0121,VALID,158,VALID,0.253906,
2012-04-10, 03:30:04,VALID,1009.87,VALID,0,VALID,104,VALID,0,VALID,22.9731,VALID,158,VALID,0.426562,
2012-04-10, 03:31:04,VALID,1009.92,VALID,0,VALID,104,VALID,0,VALID,22.9147,VALID,158,VALID,0.176953,
2012-04-10, 03:32:04,VALID,1009.91,VALID,0,VALID,104,VALID,0,VALID,22.9147,VALID,158,VALID,0.0972656,
2012-04-10, 03:33:04,VALID,1009.95,VALID,0,VALID,104,VALID,0,VALID,22.9147,VALID,158,VALID,0.344141,
2012-04-10, 03:34:04,VALID,1009.93,VALID,0,VALID,104,VALID,0,VALID,22.9147,VALID,150,VALID,0.469531,
2012-04-10, 03:35:04,VALID,1009.98,VALID,0,VALID,104,VALID,0,VALID,22.9147,VALID,150,VALID,0.191797,
2012-04-10, 03:36:04,VALID,1009.96,VALID,0,VALID,104,VALID,0,VALID,22.9147,VALID,150,VALID,0.0804688,
2012-04-10, 03:37:04,VALID,1010.01,VALID,0,VALID,104,VALID,0,VALID,22.8952,VALID,150,VALID,0.00585938,
2012-04-10, 03:38:04,VALID,1010.01,VALID,0,VALID,104,VALID,0,VALID,22.8952,VALID,150,VALID,0.180469,
2012-04-10, 03:39:04,VALID,1010.01,VALID,0,VALID,104,VALID,0,VALID,22.8969,VALID,150,VALID,0.163672,
2012-04-10, 03:40:04,VALID,1010.03,VALID,0,VALID,104,VALID,0,VALID,22.8562,VALID,150,VALID,0.101172,
2012-04-10, 03:41:04,VALID,1010.04,VALID,0,VALID,104,VALID,0,VALID,22.8368,VALID,150,VALID,0,
2012-04-10, 03:42:04,VALID,1010.07,VALID,0,VALID,104,VALID,0,VALID,22.8368,VALID,150,VALID,0.0519531,
2012-04-10, 03:43:04,VALID,1010.09,VALID,0,VALID,104,VALID,0,VALID,22.8368,VALID,150,VALID,0.215625,
2012-04-10, 03:44:04,VALID,1010.11,VALID,0,VALID,104,VALID,0,VALID,22.8562,VALID,150,VALID,0.321875,
2012-04-10, 03:45:04,VALID,1010.14,VALID,0,VALID,104,VALID,0,VALID,22.8757,VALID,150,VALID,0.379297,
2012-04-10, 03:46:04,VALID,1010.15,VALID,0,VALID,104,VALID,0,VALID,22.8952,VALID,150,VALID,0.366016,
2012-04-10, 03:47:04,VALID,1010.16,VALID,0,VALID,104,VALID,0,VALID,22.9342,VALID,149,VALID,0.509375,
2012-04-10, 03:48:04,VALID,1010.17,VALID,0,VALID,104,VALID,0,VALID,22.9536,VALID,129,VALID,0.633594,
2012-04-10, 03:49:04,VALID,1010.17,VALID,0,VALID,104,VALID,0,VALID,23.0316,VALID,113,VALID,0.651953,
2012-04-10, 03:50:04,VALID,1010.18,VALID,0,VALID,104,VALID,0,VALID,23.0511,VALID,124,VALID,0.786719,
2012-04-10, 03:51:04,VALID,1010.18,VALID,0,VALID,104,VALID,0,VALID,23.0316,VALID,128,VALID,0.946875,
2012-04-10, 03:52:04,VALID,1010.19,VALID,0,VALID,104,VALID,0,VALID,23.0316,VALID,122,VALID,0.865625,
2012-04-10, 03:53:04,VALID,1010.17,VALID,0,VALID,104,VALID,0,VALID,23.0316,VALID,91,VALID,0.663281,
2012-04-10, 03:54:04,VALID,1010.17,VALID,0,VALID,104,VALID,0,VALID,23.0511,VALID,90,VALID,0.562891,
2012-04-10, 03:55:04,VALID,1010.14,VALID,0,VALID,104,VALID,0,VALID,23.0528,VALID,84,VALID,0.960547,
2012-04-10, 03:56:04,VALID,1010.14,VALID,0,VALID,104,VALID,0,VALID,23.0316,VALID,101,VALID,0.73125,
2012-04-10, 03:57:04,VALID,1010.14,VALID,0,VALID,104,VALID,0,VALID,23.0316,VALID,86,VALID,0.983594,
2012-04-10, 03:58:04,VALID,1010.13,VALID,0,VALID,104,VALID,0,VALID,23.0316,VALID,93,VALID,1.03086,
2012-04-10, 03:59:04,VALID,1010.1,VALID,0,VALID,104,VALID,0,VALID,23.0121,VALID,95,VALID,0.882031,
2012-04-10, 04:00:04,VALID,1010.08,VALID,0,VALID,104,VALID,0,VALID,23.0316,VALID,97,VALID,0.328516,
2012-04-10, 04:01:04,VALID,1010.07,VALID,0,VALID,104,VALID,0,VALID,23.0121,VALID,73,VALID,0.632813,
2012-04-10, 04:02:04,VALID,1010.04,VALID,0,VALID,104,VALID,0,VALID,23.0121,VALID,73,VALID,0.268359,
2012-04-10, 04:03:04,VALID,1010.07,VALID,0,VALID,104,VALID,0,VALID,23.0121,VALID,73,VALID,0.0519531,